SWA1523 KGRR-KBWI

Flight info

Callsign SWA1523
Flight time N/A
Altitude 41000
Route VIO HASTE J34 SPOOL NUSMM ANTHM5
Aircraft B38M/M-SADE2E3GHIJ4J7P2RWZ/LB1D1

Departure

Time 2026-04-29 20:22
Airport Gerald R. Ford International Airport (KGRR)

Arrival

Time N/A
Airport Baltimore/Washington International Thurgood Marshall Airport (KBWI)
Time Latitude Longitude Altitude Speed Heading
2026-04-29 20:10 42.88433 -85.52823 800 ft 0 kts 337°
2026-04-29 20:13 42.88432 -85.52822 800 ft 1 kts 337°
2026-04-29 20:13 42.88419 -85.52813 800 ft 3 kts 319°
2026-04-29 20:14 42.88407 -85.52793 800 ft 3 kts 310°
2026-04-29 20:14 42.88395 -85.52777 800 ft 3 kts 312°
2026-04-29 20:14 42.88387 -85.52756 800 ft 3 kts 270°
2026-04-29 20:14 42.88391 -85.52732 800 ft 3 kts 239°
2026-04-29 20:15 42.88396 -85.52722 800 ft 0 kts 235°
2026-04-29 20:18 42.88374 -85.52752 800 ft 11 kts 212°
2026-04-29 20:19 42.88260 -85.52745 800 ft 22 kts 172°
2026-04-29 20:19 42.88097 -85.52711 800 ft 23 kts 171°
2026-04-29 20:19 42.88023 -85.52630 800 ft 10 kts 83°
2026-04-29 20:19 42.88048 -85.52400 801 ft 38 kts 81°
2026-04-29 20:20 42.88088 -85.52040 801 ft 37 kts 82°
2026-04-29 20:20 42.87946 -85.51940 799 ft 40 kts 189°
2026-04-29 20:20 42.87515 -85.51854 802 ft 67 kts 171°
2026-04-29 20:20 42.87066 -85.51763 803 ft 63 kts 172°
2026-04-29 20:21 42.86720 -85.51694 804 ft 29 kts 171°
2026-04-29 20:21 42.86647 -85.51542 804 ft 19 kts 81°
2026-04-29 20:21 42.86684 -85.51438 804 ft 2 kts 21°
2026-04-29 20:21 42.86913 -85.51499 804 ft 71 kts 349°
2026-04-29 20:22 42.87628 -85.51652 801 ft 134 kts 352°
2026-04-29 20:22 42.88672 -85.51852 1119 ft 164 kts 350°
2026-04-29 20:22 42.89840 -85.52149 1845 ft 173 kts 351°
2026-04-29 20:22 42.91116 -85.52492 2358 ft 202 kts 352°
2026-04-29 20:23 42.92557 -85.52801 3146 ft 217 kts 353°
2026-04-29 20:23 42.94162 -85.52668 3548 ft 251 kts 17°
2026-04-29 20:23 42.95694 -85.51565 4598 ft 255 kts 39°
2026-04-29 20:23 42.96762 -85.49562 5336 ft 271 kts 70°
2026-04-29 20:24 42.96975 -85.47020 6379 ft 276 kts 97°
2026-04-29 20:24 42.96266 -85.44553 7163 ft 282 kts 131°
2026-04-29 20:24 42.94744 -85.42963 8239 ft 277 kts 161°
2026-04-29 20:24 42.92850 -85.42590 9106 ft 277 kts 190°
2026-04-29 20:25 42.91037 -85.43378 10133 ft 275 kts 204°
2026-04-29 20:25 42.89211 -85.44344 10747 ft 291 kts 202°
2026-04-29 20:25 42.87242 -85.45330 11207 ft 310 kts 202°
2026-04-29 20:25 42.85174 -85.46367 11822 ft 323 kts 202°
2026-04-29 20:26 42.83037 -85.47365 12698 ft 327 kts 195°
2026-04-29 20:26 42.80749 -85.47447 13596 ft 336 kts 172°
2026-04-29 20:26 42.78547 -85.46266 14396 ft 348 kts 150°
2026-04-29 20:26 42.76752 -85.43982 15101 ft 362 kts 129°
2026-04-29 20:27 42.75575 -85.40921 15844 ft 370 kts 117°
2026-04-29 20:27 42.74851 -85.38800 16253 ft 376 kts 118°
2026-04-29 20:27 42.73332 -85.34454 17182 ft 384 kts 118°
2026-04-29 20:27 42.72185 -85.31186 17829 ft 391 kts 118°
2026-04-29 20:28 42.71006 -85.27834 18472 ft 396 kts 118°
2026-04-29 20:28 42.69807 -85.24427 19056 ft 401 kts 118°
2026-04-29 20:28 42.68580 -85.20944 19663 ft 406 kts 118°
2026-04-29 20:28 42.67369 -85.17512 20225 ft 410 kts 118°
2026-04-29 20:29 42.66127 -85.14000 20812 ft 415 kts 119°
2026-04-29 20:29 42.64871 -85.10451 21377 ft 419 kts 119°
2026-04-29 20:29 42.63600 -85.06864 21948 ft 424 kts 119°
2026-04-29 20:29 42.62316 -85.03244 22496 ft 428 kts 119°
2026-04-29 20:30 42.61016 -84.99584 23070 ft 432 kts 119°
2026-04-29 20:30 42.59702 -84.95895 23607 ft 436 kts 119°
2026-04-29 20:30 42.58379 -84.92179 24079 ft 439 kts 119°
2026-04-29 20:30 42.57042 -84.88429 24580 ft 442 kts 119°
2026-04-29 20:31 42.55701 -84.84673 25071 ft 444 kts 120°
2026-04-29 20:31 42.54346 -84.80885 25541 ft 447 kts 120°
2026-04-29 20:31 42.52985 -84.77083 26013 ft 450 kts 120°
2026-04-29 20:31 42.51611 -84.73256 26477 ft 453 kts 120°
2026-04-29 20:32 42.50227 -84.69402 26924 ft 455 kts 120°
2026-04-29 20:32 42.48839 -84.65540 27325 ft 458 kts 120°
2026-04-29 20:32 42.47438 -84.61651 27788 ft 460 kts 120°
2026-04-29 20:32 42.46505 -84.59061 28062 ft 462 kts 120°
2026-04-29 20:33 42.44612 -84.53816 28633 ft 465 kts 120°
2026-04-29 20:33 42.43185 -84.49873 29043 ft 468 kts 120°
2026-04-29 20:33 42.41750 -84.45912 29448 ft 471 kts 120°
2026-04-29 20:33 42.40303 -84.41919 29859 ft 473 kts 120°
2026-04-29 20:34 42.38848 -84.37915 30207 ft 476 kts 120°
2026-04-29 20:34 42.37382 -84.33886 30531 ft 478 kts 120°
2026-04-29 20:34 42.35909 -84.29840 30861 ft 480 kts 120°
2026-04-29 20:34 42.34426 -84.25775 31189 ft 482 kts 120°
2026-04-29 20:35 42.32943 -84.21715 31546 ft 483 kts 120°
2026-04-29 20:35 42.31450 -84.17633 31834 ft 486 kts 120°
2026-04-29 20:35 42.29948 -84.13532 32148 ft 488 kts 120°
2026-04-29 20:35 42.28438 -84.09416 32455 ft 490 kts 120°
2026-04-29 20:36 42.27437 -84.06690 32676 ft 491 kts 120°
2026-04-29 20:36 42.25917 -84.02558 33095 ft 490 kts 120°
2026-04-29 20:36 42.24403 -83.98448 33487 ft 490 kts 120°
2026-04-29 20:36 42.22883 -83.94326 33841 ft 490 kts 120°
2026-04-29 20:37 42.21363 -83.90210 34166 ft 490 kts 121°
2026-04-29 20:37 42.19847 -83.86110 34532 ft 488 kts 121°
2026-04-29 20:37 42.18329 -83.82014 34846 ft 488 kts 121°
2026-04-29 20:37 42.16811 -83.77922 35150 ft 489 kts 121°